Location: Unspecified
(22.6800°N, 112.2000°E)
Time: 01:53:07
(UTC+08:00)

Courier 1B Rocket - Pass Details

Date: 08 August 2021
Orbit: 920 x 1202 km, 28.3° (Epoch: 17 September)

Event Time Altitude Azimuth Distance (km) Brightness Sun altitude
Exits shadow 02:46:34 27° 81° (E) 1,771 6.6 -39.8°
Drops below altitude 10° 02:49:25 10° 90° (E) 2,697 7.7 -39.4°
Sets 02:52:01 0° 94° (E) 3,612 8.4 -39.0°
